CDT,Max TemperatureF,Mean TemperatureF,Min TemperatureF,Max Dew PointF,MeanDew PointF,Min DewpointF,Max Humidity, Mean Humidity, Min Humidity, Max Sea Level PressureIn, Mean Sea Level PressureIn, Min Sea Level PressureIn, Max VisibilityMiles, Mean VisibilityMiles, Min VisibilityMiles, Max Wind SpeedMPH, Mean Wind SpeedMPH, Max Gust SpeedMPH,PrecipitationIn, CloudCover, Events, WindDirDegrees
2013-7-1,92,83,74,57,54,50,53,37,25,29.98,29.95,29.89,10,10,10,14,4,20,0.00,1,,1
2013-7-2,95,82,70,59,52,42,63,37,17,30.05,30.00,29.95,10,10,10,13,3,18,0.00,1,,1
2013-7-3,98,83,68,65,55,44,71,41,16,30.03,29.98,29.88,10,10,7,13,2,16,0.00,1,Thunderstorm,163
2013-7-4,95,84,72,71,64,54,83,53,25,30.02,29.97,29.90,10,10,10,8,2,,0.00,2,Rain,150
2013-7-5,98,84,71,68,62,54,84,49,23,30.00,29.94,29.86,10,10,5,10,2,20,0.00,1,,122
2013-7-6,100,86,74,73,66,55,86,54,23,29.95,29.91,29.83,10,10,10,15,4,21,0.00,1,,120
2013-7-7,99,87,76,75,71,63,88,62,31,30.01,29.95,29.92,10,10,10,20,5,26,0.00,1,,135
2013-7-8,93,84,76,75,72,64,91,68,39,30.15,30.08,30.01,10,10,4,15,6,17,0.12,2,Rain,153
2013-7-9,102,88,76,78,71,61,92,62,27,30.16,30.10,30.03,10,8,0,16,4,23,0.00,2,Fog,157
2013-7-10,102,88,76,77,70,60,91,59,26,30.11,30.04,29.94,10,10,5,14,6,21,0.00,1,,176
2013-7-11,102,90,78,76,67,54,89,53,20,30.03,29.97,29.89,10,10,7,13,7,16,0.00,0,,195
2013-7-12,102,90,79,75,69,61,86,54,26,29.99,29.93,29.87,10,10,10,14,6,16,0.00,1,,177
2013-7-13,104,91,78,72,65,54,80,47,19,29.99,29.92,29.83,10,10,7,9,2,,0.00,0,,123
2013-7-14,92,84,76,73,69,66,80,62,42,29.95,29.91,29.88,10,10,10,13,4,21,0.00,1,Rain-Thunderstorm,130
2013-7-15,90,82,74,74,71,67,89,75,48,30.05,29.99,29.92,10,10,1,13,5,18,0.32,2,Rain-Thunderstorm,79
2013-7-16,96,85,76,74,72,66,90,77,40,30.14,30.08,30.03,10,9,1,22,5,30,0.81,1,Rain-Thunderstorm,92
2013-7-17,88,82,76,76,73,67,91,77,53,30.20,30.15,30.12,10,10,7,13,5,18,0.03,3,Rain-Thunderstorm,100
2013-7-18,97,86,75,75,68,57,90,61,26,30.17,30.10,29.99,10,10,7,12,2,16,0.00,1,,116
2013-7-19,95,84,74,75,70,62,91,68,34,30.09,30.03,29.96,10,10,10,15,2,22,0.00,0,Rain-Thunderstorm,120
2013-7-20,94,85,77,75,73,67,90,75,43,30.01,29.96,29.89,10,8,1,14,2,23,0.43,1,Rain-Thunderstorm,141
2013-7-21,95,84,74,78,75,70,91,79,45,30.00,29.95,29.91,10,9,1,26,5,33,0.56,1,Rain-Thunderstorm,171
2013-7-22,98,90,81,78,74,69,88,65,41,30.03,29.98,29.93,10,10,7,18,9,24,0.00,3,,180
2013-7-23,99,90,80,78,72,62,89,63,29,30.04,29.98,29.89,10,9,5,16,10,22,0.00,2,,187
2013-7-24,96,88,79,76,72,66,87,63,36,30.03,29.95,29.89,10,9,5,15,8,22,0.00,2,,203
2013-7-25,100,89,78,76,69,57,88,57,25,30.05,30.01,29.97,10,9,5,14,6,18,0.00,0,,199
2013-7-26,98,89,80,77,73,65,89,63,34,30.06,29.99,29.89,10,10,7,15,8,22,0.00,1,Thunderstorm,193
2013-7-27,92,86,82,75,73,69,79,67,49,29.99,29.94,29.87,10,10,7,13,7,17,0.00,4,Rain,289
2013-7-28,100,89,78,77,70,63,85,60,30,29.99,29.93,29.87,10,10,5,13,5,20,0.02,2,Rain-Thunderstorm,147
2013-7-29,100,90,79,77,69,52,90,58,21,30.08,30.02,29.97,10,9,3,21,8,28,0.00,2,,166
2013-7-30,101,90,78,76,69,52,90,59,19,30.14,30.07,30.00,10,9,5,16,8,21,0.00,1,,176
2013-7-31,103,88,75,76,68,56,91,58,21,30.12,30.04,29.93,10,9,2,12,5,16,0.00,2,,181